STARLINK-1355, 45563

Orbit data source: Space-Track

STARLINK-1355, 45563 is a payload satellite owned by SpaceX/Seattle (US) in LEO that was launched on Wed, 22 Apr 2020 UTC via an FALCON 9 launch vehicle from the Air Force Eastern Test Range (AFETR). Payload-class satellites include a variety of spacecraft equipped with specific instruments for various scientific and technological missions. These include communications satellites like Starlink; space stations such as the ISS; scientific satellites like the Hubble; Earth observation satellites from companies like Planet Labs, Umbra, and HawkEye 360; GPS; miniature CubeSats for education and research; and military/defense satellites.

Loading next visibility...
Identifier
45563, 2020-025AJ
Orbit
LEO
Last TLE update
7 hours ago
Origin
Manufacturer
SpaceX/Seattle
Mission
Partially operational Commercial Communications
Bus & Motor
STARLINK, Unknown motor
Mass
260 kg wet, ~248 kg dry
Launch date (UTC)
2020-04-22 (5 years ago)
Launch vehicle
FALCON 9
Launch site
Air Force Eastern Test Range (AFETR)
Object type
Payload
Rocket body
Debris
Shape & HBR
Box + 1 Pan, 8.86 m
Radar Cross Section
13.562 m², Large (>1 m²)

Expand to show TLE details & history

TLE from 7 hours ago
0 STARLINK-1355
1 45563U 20025AJ  25182.94145298  .00071916  00000-0  43821-3 0  9997
2 45563  53.0441  61.0657 0004636 107.9585 252.1940 15.76790763288575
Epoch: 2025-07-01T22:35Z
TLE epoch observation values (Epoch: 2025-07-01T22:35:41.537Z)
Latitude
-0.00003°
Longitude
161.91292°
Altitude
341.399 km
Speed
7.705 km/s
True Right ascension
04h 04m 15s
True Declination
0° 00' 00"
Sunlit
Object was in daylight at epoch
Visualization orbit readout
Latitude
-45.49128°
Longitude
29.99096°
Altitude
356.97 km
Speed
7.693 km/s
Apparent Right ascension
00h 36m 18s
Apparent Declination
-75° 08' 18"
Sunlit
Object is in full shadow
Visualization observer readout
Local Sidereal Time
17:23:53
Azimuth
160.546° S
Elevation
-42.947°
Doppler factor
1
Orbital elements
Apogee altitude
342.935 km
Perigee altitude
336.706 km
Semi-major axis
6,717.958 km
Eccentricity
0.00046
Inclination
53.0441°
RAAN
61.0657°
Arg. of periapsis
107.9585°
True anomaly
Unknown
Mean anomaly
252.194°
Eccentric anomaly
Unknown
Mean motion
3.94173 °/min
Orbital period
91.33 mins
BSTAR
0.00043821
Loading maneuver chart data...
Loading SW <> Apogee altitude chart data...
Loading historical data...
Loading historical data...
Loading historical data...
Loading historical data...
Loading historical data...
Loading historical data...
Loading historical data...

STARLINK-1355 Visibility forecast

Observer location: undefined°, undefined°

Span
Click to sort rows by Start time (UTC) header in descending order
Start Az.
Max El. time (UTC)
Max El. Az.
Max El.
End time (UTC)
End Az.
5 mins2025-07-02 18:33:16.863Z225.571° WSW2025-07-02 18:35:16.863Z201.745° SSW43.259°2025-07-02 18:38:16.863Z52.092° ENE
|